�N����,����,�~����,�C��,���x,�C��,����,���ϕ���,�ő�u�ԕ���,�ő厞����,���˗�,�I�_���x,�n�����x,�ő啗���N��,DTYPE
"23/07/08","00:10",0.0,25.5,93.1,1001.5,319.2,0.7,1.1,330.5,0.00,24.3,24.8,"00:05:52",1
"23/07/08","00:20",0.0,25.5,93.2,1001.2,341.0,0.8,2.2,354.2,0.00,24.4,24.7,"00:15:12",1
"23/07/08","00:30",0.0,25.5,93.5,1001.2,322.0,0.8,1.6,337.6,0.00,24.4,24.8,"00:28:00",1
"23/07/08","00:40",0.0,25.3,93.5,1001.7,291.5,0.7,1.3,317.4,0.00,24.2,24.7,"00:30:16",1
"23/07/08","00:50",0.0,25.3,93.7,1001.2,279.9,0.7,1.4,295.4,0.00,24.3,24.8,"00:42:08",1
"23/07/08","01:00",0.0,25.3,93.8,1001.2,286.0,1.0,2.1,238.2,0.00,24.3,24.7,"00:59:44",1
"23/07/08","01:10",0.0,25.3,93.9,1001.5,294.9,1.0,1.7,352.5,0.00,24.3,24.6,"01:08:00",1
"23/07/08","01:20",0.0,25.3,94.0,1001.5,296.1,1.0,1.8,336.2,0.00,24.3,24.7,"01:19:12",1
"23/07/08","01:30",0.0,25.2,94.1,1001.2,315.9,0.8,1.6,340.9,0.00,24.2,24.6,"01:20:48",1
"23/07/08","01:40",0.0,25.2,94.2,1001.5,292.8,0.3,1.1,359.3,0.00,24.2,24.7,"01:39:52",1
"23/07/08","01:50",0.0,25.2,94.3,1001.7,326.3,1.1,1.7,314.1,0.00,24.3,24.6,"01:42:32",1
"23/07/08","02:00",0.0,25.2,94.4,1001.2,346.6,0.8,1.4,317.7,0.00,24.3,24.6,"01:57:28",1
"23/07/08","02:10",0.0,25.1,94.4,1001.0,338.2,0.6,1.7,337.4,0.00,24.2,24.6,"02:00:24",1
"23/07/08","02:20",0.0,25.1,94.5,1001.0,296.0,1.0,1.9,339.8,0.00,24.2,24.6,"02:18:48",1
"23/07/08","02:30",0.0,25.0,94.6,1001.0,320.3,1.2,2.6,340.3,0.00,24.1,24.6,"02:26:00",1
"23/07/08","02:40",0.0,24.9,94.8,1000.8,311.5,1.2,2.2,327.3,0.00,24.0,24.6,"02:39:12",1
"23/07/08","02:50",0.0,24.9,94.8,1001.0,301.4,1.1,1.4,313.2,0.00,24.0,24.5,"02:40:16",1
"23/07/08","03:00",0.0,24.9,94.9,1000.5,308.5,0.8,1.8,333.6,0.00,24.1,24.6,"02:54:24",1
"23/07/08","03:10",0.0,24.9,94.9,1000.3,279.8,0.7,1.2,250.5,0.00,24.1,24.5,"03:08:16",1
"23/07/08","03:20",0.0,24.8,95.0,1000.3,297.4,0.8,1.6,305.4,0.00,24.0,24.3,"03:18:32",1
"23/07/08","03:30",0.0,24.8,95.0,1000.3,327.8,1.2,2.0,346.1,0.00,24.0,24.4,"03:24:08",1
"23/07/08","03:40",0.0,24.8,95.1,1000.3,328.0,1.0,1.4,335.1,0.00,24.0,24.2,"03:36:08",1
"23/07/08","03:50",0.0,24.7,95.2,1000.5,324.6,1.0,1.3,329.9,0.00,23.9,24.5,"03:42:56",1
"23/07/08","04:00",0.0,24.7,95.2,1000.5,304.9,1.0,1.7,352.4,0.00,23.9,24.4,"03:59:04",1
"23/07/08","04:10",0.0,24.8,95.2,1000.5,321.7,0.7,1.3,326.0,0.00,24.0,24.3,"04:00:24",1
"23/07/08","04:20",0.0,24.8,95.3,1001.0,278.1,0.5,1.0,323.2,0.00,24.0,24.5,"04:12:16",1
"23/07/08","04:30",0.0,24.7,95.3,1000.8,281.5,0.8,1.3,247.4,0.00,23.9,24.5,"04:28:48",1
"23/07/08","04:40",0.0,24.7,95.4,1001.0,317.9,0.8,1.4,342.9,0.00,24.0,24.5,"04:30:32",1
"23/07/08","04:50",0.0,24.8,95.4,1000.8,334.6,0.8,1.2,331.5,0.00,24.1,24.6,"04:40:32",1
"23/07/08","05:00",0.0,24.8,95.4,1000.5,297.7,0.6,1.3,336.2,0.00,24.1,24.5,"04:58:16",1
"23/07/08","05:10",0.0,24.8,95.4,1000.3,246.1,0.6,1.1,237.7,0.00,24.1,24.4,"05:01:36",1
"23/07/08","05:20",0.0,24.8,95.4,1000.0,339.9,0.8,1.6,342.1,0.00,24.1,24.4,"05:16:16",1
"23/07/08","05:30",0.0,24.8,95.5,1000.3,272.7,0.8,1.6,328.4,0.00,24.1,24.5,"05:21:36",1
"23/07/08","05:40",0.0,24.8,95.5,1000.3,299.3,1.0,1.9,334.2,0.00,24.1,24.4,"05:38:32",1
"23/07/08","05:50",0.0,24.8,95.6,1001.0,329.1,1.1,1.9,333.7,0.00,24.1,24.3,"05:49:44",1
"23/07/08","06:00",0.0,24.8,95.6,1000.8,329.4,0.8,1.4,342.5,0.00,24.1,24.4,"05:50:08",1
"23/07/08","06:10",0.0,24.8,95.6,1000.8,309.3,0.8,1.6,339.4,0.00,24.1,24.2,"06:08:48",1
"23/07/08","06:20",0.0,24.8,95.7,1000.8,301.2,0.3,1.1,328.5,0.00,24.1,24.4,"06:10:48",1
"23/07/08","06:30",0.0,24.8,95.7,1001.0,316.3,1.0,1.6,334.9,0.00,24.1,24.2,"06:29:28",1
"23/07/08","06:40",0.0,24.8,95.7,1001.0,296.5,0.8,1.3,325.7,0.00,24.1,24.3,"06:30:16",1
"23/07/08","06:50",0.0,24.9,95.7,1001.2,293.1,0.8,1.1,266.0,0.01,24.2,24.4,"06:41:44",1
"23/07/08","07:00",0.0,25.0,95.8,1001.0,317.1,0.8,1.7,323.5,0.01,24.3,24.2,"06:56:16",1
"23/07/08","07:10",0.0,25.2,95.8,1001.0,312.0,0.7,1.2,321.9,0.02,24.5,24.1,"07:02:32",1
"23/07/08","07:20",0.0,25.4,95.7,1001.0,328.8,1.0,1.6,337.7,0.02,24.7,24.2,"07:11:28",1
"23/07/08","07:30",0.0,25.4,95.7,1000.8,332.5,0.8,1.4,332.6,0.01,24.7,24.3,"07:26:08",1
"23/07/08","07:40",0.0,25.4,95.7,1001.2,322.4,1.1,1.7,323.4,0.01,24.7,24.3,"07:39:20",1
"23/07/08","07:50",0.0,25.6,95.7,1001.2,328.2,1.0,1.3,342.4,0.02,24.9,24.2,"07:45:20",1
"23/07/08","08:00",0.0,25.7,95.7,1001.0,318.8,0.8,1.6,337.2,0.02,25.0,24.2,"07:56:32",1
"23/07/08","08:10",0.0,25.8,95.7,1001.2,267.9,0.7,1.3,255.5,0.02,25.1,24.2,"08:00:02",1
"23/07/08","08:20",0.0,25.9,95.6,1001.5,281.8,0.7,1.4,248.8,0.01,25.2,24.4,"08:10:16",1
"23/07/08","08:30",0.0,26.3,95.7,1001.0,258.6,0.2,1.0,247.1,0.06,25.6,24.3,"08:20:48",1
"23/07/08","08:40",0.0,26.5,95.6,1001.2,333.4,0.7,2.1,343.4,0.11,25.8,24.3,"08:36:40",1
"23/07/08","08:50",0.0,26.4,95.3,1001.2,349.4,0.8,1.7,356.2,0.05,25.6,24.2,"08:44:00",1
"23/07/08","09:00",0.0,26.5,95.1,1001.5,344.9,0.8,1.7,333.3,0.02,25.7,24.2,"08:51:20",1
"23/07/08","09:10",0.0,26.5,95.0,1001.2,328.0,0.8,1.6,348.3,0.03,25.7,24.2,"09:06:32",1
"23/07/08","09:20",0.0,26.5,94.7,1001.2,336.7,1.1,1.9,343.7,0.05,25.6,24.4,"09:11:12",1
"23/07/08","09:30",0.0,26.7,94.3,1001.2,346.0,1.1,1.7,355.7,0.09,25.7,24.3,"09:28:32",1
"23/07/08","09:40",0.0,26.8,93.8,1001.5,6.3,0.7,1.7,355.7,0.04,25.8,24.2,"09:32:32",1
"23/07/08","09:50",0.0,27.0,93.3,1001.0,300.6,0.5,1.6,241.9,0.02,25.9,24.2,"09:48:48",1
"23/07/08","10:00",0.0,26.9,92.6,1001.0,285.0,1.0,3.4,244.3,0.02,25.6,24.6,"09:52:16",1
"23/07/08","10:10",0.0,27.1,91.5,1001.2,314.4,1.5,4.1,327.2,0.03,25.6,24.2,"10:03:52",1
"23/07/08","10:20",0.0,27.4,90.3,1001.2,307.4,1.5,3.3,324.8,0.04,25.7,24.5,"10:17:20",1
"23/07/08","10:30",0.0,27.7,88.5,1001.0,304.6,0.8,2.0,301.7,0.05,25.7,24.5,"10:29:20",1
"23/07/08","10:40",0.0,27.9,86.7,1000.5,311.2,1.3,2.7,328.5,0.04,25.5,24.2,"10:37:36",1
"23/07/08","10:50",0.0,28.1,85.4,1000.8,309.1,0.7,1.8,319.5,0.03,25.5,24.4,"10:45:44",1
"23/07/08","11:00",0.0,28.3,84.1,1001.0,340.1,0.6,1.9,340.5,0.06,25.4,24.4,"10:59:52",1
"23/07/08","11:10",0.0,28.5,83.3,1000.8,284.5,0.7,1.6,279.1,0.04,25.4,24.1,"11:05:44",1
"23/07/08","11:20",0.0,28.4,82.9,1000.5,311.4,1.0,2.0,350.1,0.02,25.3,24.4,"11:13:20",1
"23/07/08","11:30",0.0,28.2,82.8,1000.8,307.4,1.2,2.7,338.4,0.01,25.0,24.4,"11:21:20",1
"23/07/08","11:40",0.0,28.3,82.9,1000.5,274.4,1.0,2.0,245.0,0.03,25.2,24.3,"11:38:32",1
"23/07/08","11:50",0.0,28.6,82.8,1000.5,265.3,1.3,4.1,339.8,0.09,25.4,24.3,"11:43:52",1
"23/07/08","12:00",0.0,28.8,81.6,1000.8,251.7,1.5,5.5,352.7,0.11,25.4,24.4,"11:57:36",1
"23/07/08","12:10",0.0,28.8,81.1,1000.5,291.5,1.3,4.5,308.6,0.08,25.3,24.2,"12:03:20",1
"23/07/08","12:20",0.0,29.0,81.0,1000.3,296.3,1.5,3.5,343.5,0.12,25.4,24.4,"12:10:32",1
"23/07/08","12:30",0.0,29.1,80.5,1000.0,307.3,1.3,2.8,322.6,0.09,25.4,24.3,"12:21:52",1
"23/07/08","12:40",0.0,29.1,80.5,1000.0,299.0,1.5,2.9,306.8,0.11,25.4,24.3,"12:31:04",1
"23/07/08","12:50",0.0,29.3,80.0,999.8,302.7,1.6,4.1,337.7,0.14,25.5,24.3,"12:44:48",1
"23/07/08","13:00",0.0,29.2,79.2,999.8,311.9,1.8,4.3,3.7,0.10,25.3,24.3,"12:52:08",1
"23/07/08","13:10",0.0,29.4,79.1,999.8,291.3,1.5,4.4,326.9,0.11,25.4,24.3,"13:02:08",1
"23/07/08","13:20",0.0,29.5,78.9,1000.3,281.7,1.2,3.3,216.9,0.09,25.5,24.4,"13:15:12",1
"23/07/08","13:30",0.0,29.5,78.8,1000.0,256.0,1.5,4.1,220.6,0.09,25.5,24.6,"13:24:08",1
"23/07/08","13:40",0.0,29.4,78.7,1000.0,260.7,1.3,3.6,219.5,0.08,25.4,24.3,"13:33:28",1
"23/07/08","13:50",0.0,29.4,78.9,1000.0,261.8,1.0,2.2,245.3,0.06,25.4,24.4,"13:46:00",1
"23/07/08","14:00",0.0,29.4,79.0,1000.0,238.8,1.3,2.8,342.4,0.09,25.4,24.5,"13:50:32",1
"23/07/08","14:10",0.0,29.5,78.6,1000.0,239.3,1.6,3.4,213.7,0.12,25.4,24.6,"14:02:40",1
"23/07/08","14:20",0.0,29.6,78.0,1000.3,298.2,0.8,3.2,335.0,0.08,25.4,24.7,"14:18:08",1
"23/07/08","14:30",0.0,29.6,77.8,999.8,281.4,0.8,3.1,347.6,0.05,25.4,24.4,"14:29:44",1
"23/07/08","14:40",0.0,29.4,78.3,1000.0,299.7,1.1,2.4,328.5,0.07,25.3,24.5,"14:34:00",1
"23/07/08","14:50",0.0,29.4,79.0,999.8,277.5,1.1,3.5,353.1,0.07,25.4,24.5,"14:46:40",1
"23/07/08","15:00",0.0,29.0,79.3,999.3,308.5,1.0,2.6,301.8,0.03,25.1,24.7,"14:59:20",1
"23/07/08","15:10",0.0,28.9,80.1,999.6,304.0,1.2,3.9,338.8,0.03,25.2,24.8,"15:08:56",1
"23/07/08","15:20",0.0,28.7,80.8,999.1,321.9,1.7,3.7,348.3,0.03,25.1,24.5,"15:18:40",1
"23/07/08","15:30",0.0,28.6,81.1,999.1,277.9,1.1,3.2,313.7,0.02,25.1,24.5,"15:21:44",1
"23/07/08","15:40",0.0,28.7,81.3,999.3,293.4,1.0,3.7,342.4,0.04,25.2,24.7,"15:31:20",1
"23/07/08","15:50",0.0,28.8,81.2,999.6,334.1,1.1,3.1,333.6,0.04,25.3,24.6,"15:41:28",1
"23/07/08","16:00",0.0,28.7,81.4,999.6,338.8,0.7,1.9,344.6,0.02,25.2,24.6,"15:53:44",1
"23/07/08","16:10",0.0,28.7,81.6,999.3,357.7,1.0,2.4,25.5,0.03,25.3,24.6,"16:08:08",1
"23/07/08","16:20",0.0,28.8,82.0,999.1,353.6,0.6,1.3,121.2,0.05,25.5,24.7,"16:15:36",1
"23/07/08","16:30",0.0,28.7,81.7,999.1,19.3,0.8,2.6,15.9,0.04,25.3,24.7,"16:27:12",1
"23/07/08","16:40",0.0,28.7,81.4,999.1,349.9,1.3,3.7,349.4,0.03,25.2,24.6,"16:30:40",1
"23/07/08","16:50",0.0,28.8,81.5,999.1,336.0,1.2,3.3,345.6,0.03,25.4,24.5,"16:47:36",1
"23/07/08","17:00",0.0,28.8,81.7,999.3,353.1,1.5,3.2,329.5,0.03,25.4,24.6,"16:50:02",1
"23/07/08","17:10",0.0,28.7,81.7,999.1,336.9,1.8,3.9,351.7,0.02,25.3,24.6,"17:05:36",1
"23/07/08","17:20",0.0,28.7,81.6,999.1,330.6,1.3,4.0,350.6,0.04,25.3,24.7,"17:16:08",1
"23/07/08","17:30",0.0,29.0,81.0,998.6,345.6,1.3,4.4,0.8,0.05,25.4,24.7,"17:23:12",1
"23/07/08","17:40",0.0,29.2,80.5,998.9,326.4,0.5,1.4,347.2,0.03,25.5,24.5,"17:38:24",1
"23/07/08","17:50",0.0,29.0,79.9,998.6,318.1,1.5,3.3,245.8,0.03,25.2,24.7,"17:49:44",1
"23/07/08","18:00",0.0,29.2,79.6,998.6,314.9,1.2,3.9,353.0,0.05,25.3,24.6,"17:52:32",1
"23/07/08","18:10",0.0,29.0,79.2,998.6,332.2,1.2,3.2,347.2,0.02,25.1,24.5,"18:02:24",1
"23/07/08","18:20",0.0,29.0,79.3,998.9,334.2,1.2,2.5,332.3,0.01,25.1,24.7,"18:16:32",1
"23/07/08","18:30",0.0,28.9,79.6,999.1,352.0,1.6,3.6,355.2,0.00,25.1,24.7,"18:22:24",1
"23/07/08","18:40",0.0,28.7,79.8,999.1,351.0,1.2,2.7,341.1,0.00,24.9,24.6,"18:33:20",1
"23/07/08","18:50",0.0,28.6,80.0,999.3,348.9,1.2,3.2,345.3,0.00,24.8,24.6,"18:49:20",1
"23/07/08","19:00",0.0,28.5,80.3,999.3,337.3,1.6,3.2,342.0,0.00,24.8,24.6,"18:52:08",1
"23/07/08","19:10",0.0,28.4,80.7,999.8,339.1,1.8,2.9,352.4,0.00,24.8,24.6,"19:05:36",1
"23/07/08","19:20",0.0,28.3,81.2,1000.0,350.7,1.6,2.8,353.2,0.00,24.8,24.5,"19:14:40",1
"23/07/08","19:30",0.0,28.2,81.6,1000.3,298.9,0.6,1.8,3.1,0.00,24.8,24.8,"19:20:08",1
"23/07/08","19:40",0.0,28.0,81.5,1000.0,303.9,1.0,2.0,262.8,0.00,24.6,24.6,"19:39:20",1
"23/07/08","19:50",0.0,28.2,80.6,999.8,329.6,1.1,2.6,333.7,0.00,24.6,24.7,"19:44:40",1
"23/07/08","20:00",0.0,28.3,80.6,999.8,341.0,1.0,1.8,338.0,0.00,24.7,24.7,"19:58:00",1
"23/07/08","20:10",0.0,27.9,81.0,1000.0,344.5,1.6,2.6,307.8,0.00,24.4,24.5,"20:09:04",1
"23/07/08","20:20",0.0,28.2,80.6,1000.3,312.2,1.3,2.8,355.6,0.00,24.6,24.6,"20:18:32",1
"23/07/08","20:30",0.0,28.3,80.1,1000.3,339.5,1.5,2.7,347.2,0.00,24.6,24.5,"20:22:40",1
"23/07/08","20:40",0.0,28.2,80.0,1000.3,348.6,1.3,2.6,339.5,0.00,24.5,24.5,"20:31:44",1
"23/07/08","20:50",0.0,28.2,80.0,999.3,16.3,0.6,2.1,349.3,0.00,24.5,24.6,"20:40:08",1
"23/07/08","21:00",0.0,28.0,80.5,999.8,321.0,1.1,2.9,244.7,0.00,24.4,24.4,"20:58:00",1
"23/07/08","21:10",0.0,27.8,81.2,999.3,272.3,0.6,1.9,317.1,0.00,24.3,24.6,"21:00:08",1
"23/07/08","21:20",0.0,27.6,81.8,999.8,340.9,0.7,1.3,348.0,0.00,24.2,24.7,"21:17:12",1
"23/07/08","21:30",0.0,27.5,82.3,999.8,310.2,0.6,1.4,331.6,0.00,24.3,24.5,"21:27:44",1
"23/07/08","21:40",0.0,27.4,83.0,999.8,276.7,0.3,1.6,338.3,0.00,24.3,24.4,"21:39:52",1
"23/07/08","21:50",0.0,27.2,83.6,999.6,313.4,1.0,1.9,323.8,0.00,24.2,24.6,"21:40:08",1
"23/07/08","22:00",0.0,27.2,84.1,999.8,313.9,0.6,1.1,316.3,0.00,24.3,24.4,"21:59:28",1
"23/07/08","22:10",0.0,27.5,83.4,999.8,312.4,1.7,3.1,290.5,0.00,24.5,24.6,"22:08:40",1
"23/07/08","22:20",0.0,28.0,81.9,1000.0,293.5,1.7,4.7,242.4,0.00,24.7,24.5,"22:16:48",1
"23/07/08","22:30",0.0,28.3,80.7,1000.3,224.7,1.7,5.7,238.6,0.00,24.7,24.4,"22:29:12",1
"23/07/08","22:40",0.0,28.4,80.0,999.8,220.9,1.7,3.9,248.6,0.00,24.7,24.6,"22:37:36",1
"23/07/08","22:50",0.0,28.3,80.4,1000.0,252.2,1.5,4.3,49.3,0.00,24.6,24.5,"22:44:56",1
"23/07/08","23:00",0.0,27.9,82.0,1000.3,294.5,2.0,5.9,236.9,0.00,24.6,24.7,"22:55:52",1
"23/07/08","23:10",0.0,27.5,83.3,1000.8,253.8,1.2,3.4,238.6,0.00,24.5,24.4,"23:00:16",1
"23/07/08","23:20",0.0,27.4,84.0,1000.5,283.6,1.7,5.7,233.7,0.00,24.5,24.6,"23:13:44",1
"23/07/08","23:30",0.0,27.3,84.3,1000.8,261.5,1.5,3.1,226.2,0.00,24.5,24.6,"23:27:52",1
"23/07/08","23:40",0.0,27.4,84.0,1000.5,248.1,2.0,4.2,220.2,0.00,24.5,24.4,"23:32:40",1
"23/07/08","23:50",0.0,27.4,83.8,1000.8,253.1,2.1,4.1,233.1,0.00,24.5,24.2,"23:47:04",1
"23/07/08","24:00",0.0,27.2,84.1,1001.0,256.7,1.2,3.1,251.3,0.00,24.3,24.5,"23:58:24",1
